^^

..:: Storico WU ::..




Lo storico viene creato da WUnderground con i dati che la stazione Meteomincio invia al loro server. L' aggiornamento viene fatto ogni 5 minuti circa, tuttavia possono esserci intervalli pił ampi a causa di errori, interruzioni di servizio o problemi nell' invio tramite FTP.


Storico stazione MeteoMincio
Giorno Sommario per Luglio 10, 2022 Unità:  Inglese    Metrico   Entrambi
Giorno Settimana Mese Anno
  Max: Min: Media:
Temperatura: 89.6 °F 66.2 °F 78.4 °F
Dew Point: 64.4 °F 55.4 °F 60.3 °F
Umidità: 77% 34% 56%
Velocità vento: 9.9mph 0mph 4mph
Raffica: 14.3mph - -
Direzione- - SE
Pressione: 30.1 in 29.9 in -
Precipitazioni: 0 in    
 
 
Tabulato Dati per Luglio 10, 2022
Ora Temperatura Dew Point Pressione Direzione Velocità vento Raffica Umidità Intensità pioggia (oraria) Info solare Situazione
00:04 73.4 °F 57.2 °F 30.1 in SE 3.1 mph 3.7 mph 57% 0 in 0.00 W/m2 unknown
00:09 73.4 °F 57.2 °F 30.1 in SE 2.5 mph 3.7 mph 57% 0 in 0.00 W/m2 unknown
00:14 73.4 °F 55.4 °F 30.1 in SE 2.5 mph 3.7 mph 56% 0 in 0.00 W/m2 unknown
00:19 71.6 °F 55.4 °F 30.1 in ESE 1.9 mph 3.7 mph 56% 0 in 0.00 W/m2 unknown
00:24 71.6 °F 55.4 °F 30.1 in SE 1.9 mph 3.7 mph 57% 0 in 0.00 W/m2 unknown
00:29 71.6 °F 55.4 °F 30.1 in ESE 2.5 mph 3.7 mph 57% 0 in 0.00 W/m2 unknown
00:34 71.6 °F 55.4 °F 30.1 in East 1.9 mph 3.1 mph 58% 0 in 0.00 W/m2 unknown
00:39 71.6 °F 55.4 °F 30.1 in East 1.9 mph 2.5 mph 58% 0 in 0.00 W/m2 unknown
00:44 71.6 °F 55.4 °F 30.1 in East 1.9 mph 3.1 mph 58% 0 in 0.00 W/m2 unknown
00:49 71.6 °F 57.2 °F 30.1 in ENE 1.9 mph 3.7 mph 60% 0 in 0.00 W/m2 unknown
00:54 71.6 °F 57.2 °F 30.1 in ENE 1.9 mph 3.7 mph 60% 0 in 0.00 W/m2 unknown
00:59 69.8 °F 57.2 °F 30.1 in ENE 1.9 mph 3.7 mph 62% 0 in 0.00 W/m2 unknown
01:04 69.8 °F 57.2 °F 30.1 in ENE 1.2 mph 3.1 mph 64% 0 in 0.00 W/m2 unknown
01:09 69.8 °F 57.2 °F 30.1 in ENE 1.9 mph 2.5 mph 64% 0 in 0.00 W/m2 unknown
01:14 69.8 °F 57.2 °F 30.1 in ENE 1.9 mph 3.1 mph 65% 0 in 0.00 W/m2 unknown
01:19 69.8 °F 57.2 °F 30.1 in NE 2.5 mph 3.7 mph 65% 0 in 0.00 W/m2 unknown
01:24 69.8 °F 57.2 °F 30.1 in NE 2.5 mph 3.7 mph 65% 0 in 0.00 W/m2 unknown
01:29 69.8 °F 57.2 °F 30.1 in NE 1.2 mph 3.1 mph 65% 0 in 0.00 W/m2 unknown
01:34 69.8 °F 57.2 °F 30.1 in NE 1.9 mph 2.5 mph 65% 0 in 0.00 W/m2 unknown
01:39 69.8 °F 57.2 °F 30.1 in NE 1.9 mph 2.5 mph 66% 0 in 0.00 W/m2 unknown
01:44 69.8 °F 57.2 °F 30.1 in ENE 3.1 mph 3.7 mph 66% 0 in 0.00 W/m2 unknown
01:49 69.8 °F 57.2 °F 30.1 in ENE 2.5 mph 3.7 mph 66% 0 in 0.00 W/m2 unknown
01:54 69.8 °F 57.2 °F 30.1 in ENE 2.5 mph 3.7 mph 66% 0 in 0.00 W/m2 unknown
01:59 69.8 °F 57.2 °F 30.1 in NE 2.5 mph 3.7 mph 67% 0 in 0.00 W/m2 unknown
02:04 69.8 °F 57.2 °F 30.1 in NE 2.5 mph 3.7 mph 67% 0 in 0.00 W/m2 unknown
02:09 69.8 °F 57.2 °F 30.1 in NE 2.5 mph 3.7 mph 68% 0 in 0.00 W/m2 unknown
02:14 68 °F 59 °F 30.1 in NE 2.5 mph 3.7 mph 70% 0 in 0.00 W/m2 unknown
02:19 68 °F 59 °F 30.1 in NE 2.5 mph 3.7 mph 71% 0 in 0.00 W/m2 unknown
02:24 68 °F 59 °F 30.1 in NE 2.5 mph 3.7 mph 72% 0 in 0.00 W/m2 unknown
02:29 68 °F 59 °F 30.1 in NE 2.5 mph 3.7 mph 72% 0 in 0.00 W/m2 unknown
02:34 68 °F 59 °F 30.1 in NE 2.5 mph 3.7 mph 72% 0 in 0.00 W/m2 unknown
02:39 68 °F 59 °F 30.1 in NE 1.9 mph 3.7 mph 72% 0 in 0.00 W/m2 unknown
02:44 68 °F 59 °F 30.1 in NE 2.5 mph 3.7 mph 72% 0 in 0.00 W/m2 unknown
02:49 68 °F 59 °F 30.1 in NE 2.5 mph 3.7 mph 72% 0 in 0.00 W/m2 unknown
02:54 68 °F 59 °F 30.1 in NE 2.5 mph 3.7 mph 73% 0 in 0.00 W/m2 unknown
02:59 68 °F 59 °F 30.1 in NE 3.1 mph 3.7 mph 73% 0 in 0.00 W/m2 unknown
03:04 68 °F 59 °F 30.1 in NE 2.5 mph 3.7 mph 74% 0 in 0.00 W/m2 unknown
03:09 68 °F 59 °F 30.1 in NE 2.5 mph 3.7 mph 73% 0 in 0.00 W/m2 unknown
03:14 68 °F 59 °F 30.1 in NE 3.1 mph 3.7 mph 73% 0 in 0.00 W/m2 unknown
03:19 68 °F 59 °F 30.1 in NE 3.1 mph 3.7 mph 73% 0 in 0.00 W/m2 unknown
03:24 68 °F 59 °F 30.1 in NE 3.1 mph 5 mph 72% 0 in 0.00 W/m2 unknown
03:29 68 °F 59 °F 30 in NE 3.7 mph 5 mph 72% 0 in 0.00 W/m2 unknown
03:34 68 °F 59 °F 30 in NE 3.7 mph 5 mph 71% 0 in 0.00 W/m2 unknown
03:39 68 °F 59 °F 30 in NE 3.1 mph 3.7 mph 72% 0 in 0.00 W/m2 unknown
03:44 68 °F 59 °F 30 in NNE 3.1 mph 3.7 mph 72% 0 in 0.00 W/m2 unknown
03:49 68 °F 59 °F 30 in NNE 3.1 mph 3.7 mph 72% 0 in 0.00 W/m2 unknown
03:54 68 °F 59 °F 30 in NE 2.5 mph 3.7 mph 71% 0 in 0.00 W/m2 unknown
03:59 68 °F 59 °F 30 in NE 3.1 mph 3.7 mph 70% 0 in 0.00 W/m2 unknown
04:04 68 °F 59 °F 30 in NE 3.1 mph 5 mph 70% 0 in 0.00 W/m2 unknown
04:09 68 °F 59 °F 30 in NE 3.1 mph 5 mph 70% 0 in 0.00 W/m2 unknown
04:14 68 °F 59 °F 30 in ENE 3.1 mph 3.7 mph 71% 0 in 0.00 W/m2 unknown
04:19 68 °F 59 °F 30 in ENE 3.1 mph 3.7 mph 73% 0 in 0.00 W/m2 unknown
04:24 68 °F 59 °F 30 in ENE 2.5 mph 3.7 mph 74% 0 in 0.00 W/m2 unknown
04:29 66.2 °F 59 °F 30 in ENE 3.1 mph 3.7 mph 75% 0 in 0.00 W/m2 unknown
04:34 66.2 °F 59 °F 30 in ENE 3.7 mph 3.7 mph 76% 0 in 0.00 W/m2 unknown
04:39 66.2 °F 59 °F 30 in ENE 3.1 mph 3.7 mph 75% 0 in 0.00 W/m2 unknown
04:44 66.2 °F 59 °F 30 in ENE 2.5 mph 3.7 mph 76% 0 in 0.00 W/m2 unknown
04:49 66.2 °F 59 °F 30 in ENE 2.5 mph 3.7 mph 77% 0 in 0.00 W/m2 unknown
04:54 66.2 °F 59 °F 30 in ENE 2.5 mph 3.7 mph 77% 0 in 0.00 W/m2 unknown
04:59 66.2 °F 59 °F 30 in ENE 1.9 mph 3.1 mph 77% 0 in 0.00 W/m2 unknown
05:04 66.2 °F 59 °F 30 in ENE 1.2 mph 2.5 mph 77% 0 in 0.00 W/m2 unknown
05:09 66.2 °F 59 °F 30 in ENE 0.6 mph 1.9 mph 76% 0 in 0.00 W/m2 unknown
05:14 66.2 °F 57.2 °F 30 in ENE 1.2 mph 2.5 mph 75% 0 in 0.00 W/m2 unknown
05:19 66.2 °F 59 °F 30 in ENE 1.2 mph 2.5 mph 76% 0 in 0.00 W/m2 unknown
05:24 66.2 °F 59 °F 30 in ENE 1.2 mph 2.5 mph 75% 0 in 0.00 W/m2 unknown
05:29 66.2 °F 59 °F 30 in NE 2.5 mph 3.7 mph 75% 0 in 0.00 W/m2 unknown
05:34 66.2 °F 59 °F 30 in NE 1.9 mph 3.7 mph 75% 0 in 0.00 W/m2 unknown
05:39 66.2 °F 59 °F 30 in NE 1.9 mph 3.1 mph 75% 0 in 0.00 W/m2 unknown
05:44 66.2 °F 59 °F 30 in NE 0.6 mph 2.5 mph 75% 0 in 0.00 W/m2 unknown
05:49 66.2 °F 59 °F 30 in NE 1.2 mph 2.5 mph 75% 0 in 5.00 W/m2 unknown
05:54 66.2 °F 59 °F 30 in NE 1.9 mph 3.7 mph 76% 0 in 11.00 W/m2 unknown
05:59 66.2 °F 59 °F 30 in NNE 1.9 mph 3.7 mph 76% 0 in 14.00 W/m2 unknown
06:04 66.2 °F 59 °F 30 in NNE 2.5 mph 3.7 mph 75% 0 in 18.00 W/m2 unknown
06:09 66.2 °F 59 °F 30 in NNE 2.5 mph 3.7 mph 75% 0 in 21.00 W/m2 unknown
06:14 66.2 °F 57.2 °F 30 in NNE 2.5 mph 3.7 mph 74% 0 in 26.00 W/m2 unknown
06:19 66.2 °F 59 °F 30 in NNE 1.9 mph 3.7 mph 74% 0 in 30.00 W/m2 unknown
06:24 66.2 °F 59 °F 30 in NE 2.5 mph 3.7 mph 74% 0 in 32.00 W/m2 unknown
06:29 66.2 °F 59 °F 30 in NNE 1.9 mph 3.7 mph 74% 0 in 33.00 W/m2 unknown
06:34 66.2 °F 59 °F 30 in NE 1.9 mph 3.7 mph 74% 0 in 35.00 W/m2 unknown
06:39 66.2 °F 59 °F 30 in NE 1.9 mph 3.7 mph 75% 0 in 39.00 W/m2 unknown
06:44 66.2 °F 59 °F 30 in NNE 1.9 mph 3.7 mph 75% 0 in 51.00 W/m2 unknown
06:49 68 °F 59 °F 30 in NE 1.9 mph 3.7 mph 74% 0 in 54.00 W/m2 unknown
06:54 68 °F 59 °F 30 in NE 1.9 mph 3.1 mph 74% 0 in 62.00 W/m2 unknown
06:59 68 °F 59 °F 30 in NE 1.9 mph 2.5 mph 74% 0 in 70.00 W/m2 unknown
07:04 68 °F 60.8 °F 30 in NE 1.2 mph 3.1 mph 75% 0 in 84.00 W/m2 unknown
07:09 68 °F 60.8 °F 30 in NNE 1.2 mph 3.1 mph 75% 0 in 97.00 W/m2 unknown
07:14 68 °F 59 °F 30 in North 1.2 mph 2.5 mph 74% 0 in 97.00 W/m2 unknown
07:19 68 °F 60.8 °F 30 in NE 1.9 mph 3.7 mph 74% 0 in 127.00 W/m2 unknown
07:24 69.8 °F 59 °F 30 in NE 2.5 mph 3.7 mph 73% 0 in 142.00 W/m2 unknown
07:29 69.8 °F 59 °F 30 in NE 3.1 mph 3.7 mph 70% 0 in 155.00 W/m2 unknown
07:34 69.8 °F 60.8 °F 30 in NE 3.1 mph 3.7 mph 72% 0 in 176.00 W/m2 unknown
07:39 69.8 °F 60.8 °F 30 in NNE 3.1 mph 3.7 mph 73% 0 in 188.00 W/m2 unknown
07:44 71.6 °F 62.6 °F 30 in NNE 3.1 mph 3.7 mph 75% 0 in 200.00 W/m2 unknown
07:49 71.6 °F 62.6 °F 30 in NE 2.5 mph 3.7 mph 74% 0 in 216.00 W/m2 unknown
07:54 71.6 °F 62.6 °F 30 in NNE 2.5 mph 3.7 mph 72% 0 in 230.00 W/m2 unknown
07:59 73.4 °F 62.6 °F 30 in NE 2.5 mph 3.7 mph 71% 0 in 243.00 W/m2 unknown
08:04 73.4 °F 62.6 °F 30 in ENE 3.1 mph 3.7 mph 71% 0 in 257.00 W/m2 unknown
08:09 73.4 °F 64.4 °F 30 in NE 3.1 mph 3.7 mph 72% 0 in 272.00 W/m2 unknown
08:14 73.4 °F 64.4 °F 30 in ENE 3.1 mph 3.7 mph 72% 0 in 287.00 W/m2 unknown
08:19 73.4 °F 64.4 °F 30 in ENE 3.1 mph 3.7 mph 72% 0 in 299.00 W/m2 unknown
08:24 73.4 °F 64.4 °F 30 in ENE 2.5 mph 5 mph 71% 0 in 315.00 W/m2 unknown
08:29 75.2 °F 64.4 °F 30 in ENE 2.5 mph 5 mph 71% 0 in 327.00 W/m2 unknown
08:34 75.2 °F 64.4 °F 30 in ENE 1.9 mph 5 mph 71% 0 in 343.00 W/m2 unknown
08:39 75.2 °F 64.4 °F 30 in NNE 1.9 mph 3.7 mph 70% 0 in 355.00 W/m2 unknown
08:44 77 °F 64.4 °F 30 in NNE 1.9 mph 3.7 mph 69% 0 in 369.00 W/m2 unknown
08:49 77 °F 64.4 °F 30 in NNE 1.2 mph 3.1 mph 67% 0 in 380.00 W/m2 unknown
08:54 77 °F 62.6 °F 30 in NNE 2.5 mph 3.7 mph 64% 0 in 394.00 W/m2 unknown
08:59 77 °F 64.4 °F 30 in NNE 2.5 mph 3.7 mph 66% 0 in 410.00 W/m2 unknown
09:04 77 °F 64.4 °F 30 in NNW 1.2 mph 3.1 mph 63% 0 in 417.00 W/m2 unknown
09:09 77 °F 64.4 °F 30 in West 3.1 mph 5 mph 63% 0 in 427.00 W/m2 unknown
09:14 77 °F 64.4 °F 30 in WNW 3.1 mph 5 mph 62% 0 in 427.00 W/m2 unknown
09:19 78.8 °F 62.6 °F 30 in WSW 1.2 mph 5 mph 60% 0 in 452.00 W/m2 unknown
09:24 78.8 °F 64.4 °F 30 in SW 2.5 mph 3.7 mph 61% 0 in 464.00 W/m2 unknown
09:29 78.8 °F 64.4 °F 30 in SE 2.5 mph 3.7 mph 62% 0 in 485.00 W/m2 unknown
09:34 78.8 °F 60.8 °F 30 in SE 1.9 mph 3.7 mph 56% 0 in 496.00 W/m2 unknown
09:39 78.8 °F 62.6 °F 30 in WSW 2.5 mph 3.7 mph 59% 0 in 519.00 W/m2 unknown
09:44 78.8 °F 62.6 °F 30 in West 2.5 mph 3.7 mph 58% 0 in 533.00 W/m2 unknown
09:49 78.8 °F 62.6 °F 30 in WSW 3.1 mph 3.7 mph 57% 0 in 533.00 W/m2 unknown
09:54 78.8 °F 60.8 °F 30 in WSW 3.1 mph 3.7 mph 54% 0 in 534.00 W/m2 unknown
09:59 78.8 °F 60.8 °F 30 in WSW 3.7 mph 5 mph 55% 0 in 554.00 W/m2 unknown
10:04 78.8 °F 60.8 °F 30 in SW 3.1 mph 5 mph 52% 0 in 585.00 W/m2 unknown
10:09 78.8 °F 60.8 °F 30 in West 3.1 mph 5 mph 51% 0 in 598.00 W/m2 unknown
10:14 80.6 °F 60.8 °F 30 in SW 2.5 mph 3.7 mph 51% 0 in 606.00 W/m2 unknown
10:19 80.6 °F 60.8 °F 30 in SW 2.5 mph 3.7 mph 51% 0 in 621.00 W/m2 unknown
10:24 80.6 °F 60.8 °F 30 in SSW 1.9 mph 3.7 mph 50% 0 in 629.00 W/m2 unknown
10:29 80.6 °F 60.8 °F 30 in WNW 1.9 mph 3.1 mph 50% 0 in 642.00 W/m2 unknown
10:34 80.6 °F 60.8 °F 30 in ESE 3.1 mph 3.7 mph 51% 0 in 652.00 W/m2 unknown
10:39 80.6 °F 60.8 °F 30 in SSE 2.5 mph 3.7 mph 51% 0 in 661.00 W/m2 unknown
10:44 80.6 °F 60.8 °F 30 in SW 3.7 mph 5 mph 50% 0 in 671.00 W/m2 unknown
10:49 80.6 °F 60.8 °F 30 in SW 1.9 mph 6.2 mph 49% 0 in 680.00 W/m2 unknown
10:54 82.4 °F 60.8 °F 30 in SSW 3.1 mph 6.2 mph 49% 0 in 689.00 W/m2 unknown
10:59 82.4 °F 59 °F 30 in SSW 3.1 mph 6.2 mph 48% 0 in 696.00 W/m2 unknown
11:04 82.4 °F 62.6 °F 30 in WSW 2.5 mph 5 mph 52% 0 in 708.00 W/m2 unknown
11:09 82.4 °F 60.8 °F 30 in NNW 1.9 mph 2.5 mph 49% 0 in 719.00 W/m2 unknown
11:14 82.4 °F 60.8 °F 30 in ESE 2.5 mph 6.2 mph 49% 0 in 728.00 W/m2 unknown
11:19 82.4 °F 62.6 °F 30 in ESE 5.6 mph 8.1 mph 49% 0 in 737.00 W/m2 unknown
11:24 82.4 °F 60.8 °F 30 in ESE 6.2 mph 8.1 mph 49% 0 in 747.00 W/m2 unknown
11:29 82.4 °F 62.6 °F 30 in ESE 6.2 mph 8.1 mph 51% 0 in 754.00 W/m2 unknown
11:34 82.4 °F 60.8 °F 30 in South 5 mph 8.1 mph 49% 0 in 765.00 W/m2 unknown
11:39 84.2 °F 60.8 °F 30 in SSW 6.8 mph 9.3 mph 48% 0 in 773.00 W/m2 unknown
11:44 84.2 °F 60.8 °F 30 in WSW 6.8 mph 10.6 mph 47% 0 in 780.00 W/m2 unknown
11:49 84.2 °F 60.8 °F 30 in SW 6.2 mph 9.9 mph 47% 0 in 793.00 W/m2 unknown
11:54 84.2 °F 60.8 °F 30 in WSW 5.6 mph 8.1 mph 46% 0 in 795.00 W/m2 unknown
11:59 84.2 °F 60.8 °F 30 in SW 4.3 mph 8.1 mph 47% 0 in 803.00 W/m2 unknown
12:04 84.2 °F 60.8 °F 30 in SW 5.6 mph 6.8 mph 47% 0 in 814.00 W/m2 unknown
12:09 84.2 °F 59 °F 30 in SW 5 mph 6.8 mph 42% 0 in 821.00 W/m2 unknown
12:14 84.2 °F 59 °F 30 in SSW 4.3 mph 6.8 mph 43% 0 in 823.00 W/m2 unknown
12:19 84.2 °F 59 °F 30 in SW 5 mph 8.1 mph 43% 0 in 830.00 W/m2 unknown
12:24 84.2 °F 59 °F 30 in SSW 7.5 mph 9.3 mph 42% 0 in 833.00 W/m2 unknown
12:29 84.2 °F 59 °F 30 in SSW 6.2 mph 8.7 mph 42% 0 in 837.00 W/m2 unknown
12:34 84.2 °F 60.8 °F 30 in South 6.2 mph 8.1 mph 45% 0 in 842.00 W/m2 unknown
12:39 84.2 °F 60.8 °F 30 in South 3.7 mph 6.8 mph 45% 0 in 844.00 W/m2 unknown
12:44 84.2 °F 60.8 °F 30 in SSW 5.6 mph 6.8 mph 44% 0 in 849.00 W/m2 unknown
12:49 86 °F 60.8 °F 30 in WSW 5 mph 6.8 mph 43% 0 in 854.00 W/m2 unknown
12:54 86 °F 60.8 °F 30 in SSW 5.6 mph 8.1 mph 43% 0 in 856.00 W/m2 unknown
12:59 86 °F 60.8 °F 30 in SW 5 mph 8.1 mph 43% 0 in 860.00 W/m2 unknown
13:04 86 °F 60.8 °F 30 in WSW 5.6 mph 8.1 mph 43% 0 in 861.00 W/m2 unknown
13:09 86 °F 59 °F 30 in WSW 5.6 mph 8.1 mph 41% 0 in 865.00 W/m2 unknown
13:14 86 °F 59 °F 29.9 in WSW 3.7 mph 6.8 mph 40% 0 in 868.00 W/m2 unknown
13:19 86 °F 59 °F 29.9 in South 3.7 mph 6.2 mph 40% 0 in 868.00 W/m2 unknown
13:24 86 °F 59 °F 29.9 in WSW 6.8 mph 9.3 mph 40% 0 in 870.00 W/m2 unknown
13:29 86 °F 59 °F 29.9 in West 5 mph 8.7 mph 39% 0 in 870.00 W/m2 unknown
13:34 86 °F 60.8 °F 29.9 in WSW 6.2 mph 8.1 mph 41% 0 in 872.00 W/m2 unknown
13:39 86 °F 59 °F 29.9 in WSW 6.8 mph 8.1 mph 40% 0 in 872.00 W/m2 unknown
13:44 86 °F 59 °F 29.9 in West 6.8 mph 9.3 mph 40% 0 in 872.00 W/m2 unknown
13:49 86 °F 59 °F 29.9 in SW 6.8 mph 8.7 mph 41% 0 in 872.00 W/m2 unknown
13:54 86 °F 60.8 °F 29.9 in West 5 mph 6.8 mph 42% 0 in 872.00 W/m2 unknown
13:59 87.8 °F 60.8 °F 29.9 in West 6.2 mph 8.1 mph 41% 0 in 872.00 W/m2 unknown
14:04 87.8 °F 60.8 °F 29.9 in SW 6.2 mph 8.1 mph 40% 0 in 872.00 W/m2 unknown
14:09 87.8 °F 59 °F 29.9 in WSW 6.8 mph 8.1 mph 39% 0 in 867.00 W/m2 unknown
14:14 87.8 °F 59 °F 29.9 in West 6.2 mph 9.3 mph 40% 0 in 863.00 W/m2 unknown
14:19 87.8 °F 59 °F 29.9 in WSW 7.5 mph 10.6 mph 40% 0 in 863.00 W/m2 unknown
14:24 87.8 °F 60.8 °F 29.9 in West 7.5 mph 11.2 mph 40% 0 in 861.00 W/m2 unknown
14:29 87.8 °F 60.8 °F 29.9 in WSW 9.3 mph 11.8 mph 40% 0 in 858.00 W/m2 unknown
14:34 87.8 °F 60.8 °F 29.9 in West 6.2 mph 11.8 mph 40% 0 in 854.00 W/m2 unknown
14:39 87.8 °F 60.8 °F 29.9 in WSW 6.2 mph 9.3 mph 41% 0 in 853.00 W/m2 unknown
14:44 87.8 °F 59 °F 29.9 in West 7.5 mph 10.6 mph 39% 0 in 846.00 W/m2 unknown
14:49 87.8 °F 60.8 °F 29.9 in West 6.8 mph 10.6 mph 40% 0 in 842.00 W/m2 unknown
14:54 87.8 °F 60.8 °F 29.9 in West 6.8 mph 9.9 mph 40% 0 in 838.00 W/m2 unknown
14:59 87.8 °F 60.8 °F 29.9 in West 5 mph 8.7 mph 40% 0 in 835.00 W/m2 unknown
15:04 89.6 °F 62.6 °F 29.9 in WSW 7.5 mph 10.6 mph 41% 0 in 830.00 W/m2 unknown
15:09 89.6 °F 60.8 °F 29.9 in WSW 8.7 mph 10.6 mph 40% 0 in 823.00 W/m2 unknown
15:14 89.6 °F 60.8 °F 29.9 in West 6.8 mph 9.9 mph 40% 0 in 817.00 W/m2 unknown
15:19 87.8 °F 60.8 °F 29.9 in WNW 5.6 mph 8.7 mph 40% 0 in 810.00 W/m2 unknown
15:24 89.6 °F 60.8 °F 29.9 in WSW 5.6 mph 8.1 mph 40% 0 in 807.00 W/m2 unknown
15:29 87.8 °F 60.8 °F 29.9 in WSW 9.3 mph 11.8 mph 39% 0 in 802.00 W/m2 unknown
15:34 87.8 °F 59 °F 29.9 in WSW 9.9 mph 12.4 mph 38% 0 in 795.00 W/m2 unknown
15:39 87.8 °F 60.8 °F 29.9 in WSW 8.1 mph 13 mph 39% 0 in 784.00 W/m2 unknown
15:44 87.8 °F 59 °F 29.9 in West 6.8 mph 11.8 mph 37% 0 in 775.00 W/m2 unknown
15:49 89.6 °F 60.8 °F 29.9 in WNW 6.8 mph 11.8 mph 38% 0 in 765.00 W/m2 unknown
15:54 89.6 °F 60.8 °F 29.9 in West 6.8 mph 11.8 mph 39% 0 in 756.00 W/m2 unknown
15:59 89.6 °F 62.6 °F 29.9 in West 7.5 mph 11.8 mph 41% 0 in 751.00 W/m2 unknown
16:04 89.6 °F 62.6 °F 29.9 in West 8.1 mph 11.8 mph 41% 0 in 740.00 W/m2 unknown
16:09 89.6 °F 60.8 °F 29.9 in West 6.8 mph 9.3 mph 38% 0 in 729.00 W/m2 unknown
16:14 89.6 °F 59 °F 29.9 in West 9.9 mph 11.8 mph 37% 0 in 721.00 W/m2 unknown
16:19 89.6 °F 60.8 °F 29.9 in West 8.7 mph 11.8 mph 38% 0 in 710.00 W/m2 unknown
16:24 89.6 °F 60.8 °F 29.9 in West 6.8 mph 11.8 mph 38% 0 in 703.00 W/m2 unknown
16:29 89.6 °F 59 °F 29.9 in West 6.8 mph 9.3 mph 37% 0 in 689.00 W/m2 unknown
16:34 89.6 °F 59 °F 29.9 in WSW 6.8 mph 9.3 mph 37% 0 in 679.00 W/m2 unknown
16:39 89.6 °F 59 °F 29.9 in WSW 6.2 mph 9.3 mph 37% 0 in 666.00 W/m2 unknown
16:44 89.6 °F 60.8 °F 29.9 in WSW 8.1 mph 11.8 mph 38% 0 in 659.00 W/m2 unknown
16:49 89.6 °F 60.8 °F 29.9 in West 8.1 mph 11.8 mph 37% 0 in 649.00 W/m2 unknown
16:54 89.6 °F 60.8 °F 29.9 in West 6.8 mph 11.8 mph 38% 0 in 640.00 W/m2 unknown
16:59 89.6 °F 59 °F 29.9 in WNW 7.5 mph 10.6 mph 36% 0 in 622.00 W/m2 unknown
17:04 89.6 °F 59 °F 29.9 in West 6.2 mph 9.9 mph 37% 0 in 610.00 W/m2 unknown
17:09 89.6 °F 59 °F 29.9 in West 7.5 mph 11.8 mph 35% 0 in 603.00 W/m2 unknown
17:14 89.6 °F 57.2 °F 29.9 in West 6.8 mph 11.8 mph 34% 0 in 591.00 W/m2 unknown
17:19 89.6 °F 57.2 °F 29.9 in West 6.8 mph 9.9 mph 34% 0 in 578.00 W/m2 unknown
17:24 89.6 °F 59 °F 29.9 in WNW 5 mph 8.1 mph 35% 0 in 566.00 W/m2 unknown
17:29 89.6 °F 59 °F 29.9 in WNW 5.6 mph 6.8 mph 35% 0 in 550.00 W/m2 unknown
17:34 89.6 °F 59 °F 29.9 in WNW 3.7 mph 6.8 mph 36% 0 in 540.00 W/m2 unknown
17:39 89.6 °F 59 °F 29.9 in West 5.6 mph 6.8 mph 35% 0 in 517.00 W/m2 unknown
17:44 89.6 °F 59 °F 29.9 in WSW 6.2 mph 6.8 mph 36% 0 in 506.00 W/m2 unknown
17:49 89.6 °F 59 °F 29.9 in WSW 5 mph 6.2 mph 36% 0 in 496.00 W/m2 unknown
17:54 89.6 °F 59 °F 29.9 in West 4.3 mph 6.8 mph 37% 0 in 483.00 W/m2 unknown
17:59 89.6 °F 60.8 °F 29.9 in WSW 5 mph 6.8 mph 39% 0 in 466.00 W/m2 unknown
18:04 89.6 °F 60.8 °F 29.9 in West 5 mph 6.8 mph 39% 0 in 454.00 W/m2 unknown
18:09 89.6 °F 59 °F 29.9 in WSW 5 mph 6.8 mph 36% 0 in 443.00 W/m2 unknown
18:14 89.6 °F 59 °F 29.9 in NW 2.5 mph 5 mph 36% 0 in 424.00 W/m2 unknown
18:19 89.6 °F 59 °F 29.9 in West 4.3 mph 5 mph 36% 0 in 413.00 W/m2 unknown
18:24 89.6 °F 57.2 °F 29.9 in West 3.1 mph 5 mph 34% 0 in 397.00 W/m2 unknown
18:29 87.8 °F 57.2 °F 29.9 in WSW 3.7 mph 5 mph 35% 0 in 381.00 W/m2 unknown
18:34 87.8 °F 59 °F 29.9 in WSW 3.7 mph 6.2 mph 36% 0 in 366.00 W/m2 unknown
18:39 87.8 °F 59 °F 29.9 in SW 4.3 mph 6.2 mph 36% 0 in 353.00 W/m2 unknown
18:44 87.8 °F 57.2 °F 29.9 in WSW 2.5 mph 6.2 mph 36% 0 in 336.00 W/m2 unknown
18:49 87.8 °F 57.2 °F 29.9 in WSW 2.5 mph 3.7 mph 36% 0 in 318.00 W/m2 unknown
18:54 87.8 °F 59 °F 29.9 in West 1.2 mph 3.1 mph 38% 0 in 308.00 W/m2 unknown
18:59 87.8 °F 59 °F 29.9 in NNE 2.5 mph 3.7 mph 37% 0 in 294.00 W/m2 unknown
19:04 87.8 °F 60.8 °F 29.9 in ENE 3.7 mph 3.7 mph 41% 0 in 274.00 W/m2 unknown
19:09 87.8 °F 60.8 °F 29.9 in ENE 3.1 mph 3.7 mph 41% 0 in 262.00 W/m2 unknown
19:14 87.8 °F 62.6 °F 29.9 in East 3.1 mph 5 mph 44% 0 in 250.00 W/m2 unknown
19:19 87.8 °F 62.6 °F 29.9 in East 3.7 mph 5 mph 45% 0 in 241.00 W/m2 unknown
19:24 87.8 °F 62.6 °F 29.9 in East 5 mph 6.8 mph 45% 0 in 227.00 W/m2 unknown
19:29 86 °F 62.6 °F 29.9 in East 5 mph 6.8 mph 45% 0 in 211.00 W/m2 unknown
19:34 86 °F 62.6 °F 29.9 in East 3.1 mph 6.2 mph 46% 0 in 200.00 W/m2 unknown
19:39 86 °F 62.6 °F 29.9 in ENE 3.1 mph 5 mph 46% 0 in 185.00 W/m2 unknown
19:44 86 °F 60.8 °F 29.9 in East 2.5 mph 5 mph 44% 0 in 172.00 W/m2 unknown
19:49 86 °F 62.6 °F 29.9 in East 3.1 mph 5 mph 46% 0 in 158.00 W/m2 unknown
19:54 86 °F 62.6 °F 29.9 in East 2.5 mph 5 mph 46% 0 in 139.00 W/m2 unknown
19:59 86 °F 62.6 °F 29.9 in ENE 3.1 mph 5 mph 46% 0 in 118.00 W/m2 unknown
20:04 86 °F 62.6 °F 29.9 in East 2.5 mph 5 mph 46% 0 in 98.00 W/m2 unknown
20:09 86 °F 62.6 °F 29.9 in ENE 1.9 mph 3.7 mph 46% 0 in 91.00 W/m2 unknown
20:14 84.2 °F 62.6 °F 29.9 in ENE 2.5 mph 3.7 mph 47% 0 in 39.00 W/m2 unknown
20:19 84.2 °F 62.6 °F 29.9 in ENE 2.5 mph 3.7 mph 48% 0 in 30.00 W/m2 unknown
20:24 84.2 °F 62.6 °F 29.9 in ENE 1.2 mph 3.1 mph 47% 0 in 28.00 W/m2 unknown
20:29 84.2 °F 62.6 °F 29.9 in ENE 0.6 mph 1.9 mph 48% 0 in 23.00 W/m2 unknown
20:34 84.2 °F 62.6 °F 29.9 in ENE 0.6 mph 1.2 mph 48% 0 in 19.00 W/m2 unknown
20:39 84.2 °F 62.6 °F 29.9 in ENE 0.6 mph 1.2 mph 49% 0 in 18.00 W/m2 unknown
20:44 84.2 °F 62.6 °F 29.9 in Calm   1.2 mph 49% 0 in 14.00 W/m2 unknown
20:49 84.2 °F 62.6 °F 29.9 in ENE 1.9 mph 2.5 mph 52% 0 in 12.00 W/m2 unknown
20:54 82.4 °F 62.6 °F 29.9 in ENE 1.2 mph 2.5 mph 52% 0 in 11.00 W/m2 unknown
20:59 80.6 °F 62.6 °F 29.9 in ENE 1.2 mph 1.9 mph 52% 0 in 7.00 W/m2 unknown
21:04 80.6 °F 62.6 °F 29.9 in ENE 1.9 mph 2.5 mph 54% 0 in 5.00 W/m2 unknown
21:09 80.6 °F 62.6 °F 29.9 in NE 1.9 mph 2.5 mph 54% 0 in 0.00 W/m2 unknown
21:14 80.6 °F 62.6 °F 29.9 in NE 1.2 mph 2.5 mph 53% 0 in 0.00 W/m2 unknown
21:19 80.6 °F 62.6 °F 29.9 in NE 1.2 mph 1.9 mph 54% 0 in 0.00 W/m2 unknown
21:24 80.6 °F 62.6 °F 29.9 in NE 1.2 mph 2.5 mph 55% 0 in 0.00 W/m2 unknown
21:29 80.6 °F 62.6 °F 29.9 in NE 1.9 mph 2.5 mph 55% 0 in 0.00 W/m2 unknown
21:34 78.8 °F 62.6 °F 29.9 in NE 2.5 mph 3.7 mph 55% 0 in 0.00 W/m2 unknown
21:39 78.8 °F 60.8 °F 29.9 in NE 3.7 mph 3.7 mph 54% 0 in 0.00 W/m2 unknown
21:44 78.8 °F 60.8 °F 29.9 in NE 3.7 mph 3.7 mph 55% 0 in 0.00 W/m2 unknown
21:49 78.8 °F 62.6 °F 29.9 in ENE 3.1 mph 5 mph 56% 0 in 0.00 W/m2 unknown
21:54 78.8 °F 62.6 °F 29.9 in ENE 3.7 mph 5 mph 56% 0 in 0.00 W/m2 unknown
21:59 78.8 °F 62.6 °F 29.9 in ENE 6.8 mph 9.3 mph 56% 0 in 0.00 W/m2 unknown
22:04 78.8 °F 60.8 °F 29.9 in ENE 6.8 mph 9.9 mph 55% 0 in 0.00 W/m2 unknown
22:09 78.8 °F 62.6 °F 29.9 in East 6.8 mph 10.6 mph 57% 0 in 0.00 W/m2 unknown
22:14 78.8 °F 62.6 °F 29.9 in East 4.3 mph 9.9 mph 58% 0 in 0.00 W/m2 unknown
22:19 77 °F 62.6 °F 29.9 in East 4.3 mph 6.2 mph 59% 0 in 0.00 W/m2 unknown
22:24 77 °F 62.6 °F 29.9 in East 4.3 mph 8.1 mph 61% 0 in 0.00 W/m2 unknown
22:29 77 °F 62.6 °F 29.9 in NE 5.6 mph 8.1 mph 62% 0 in 0.00 W/m2 unknown
22:34 77 °F 62.6 °F 29.9 in ENE 7.5 mph 9.3 mph 63% 0 in 0.00 W/m2 unknown
22:39 77 °F 64.4 °F 29.9 in ENE 6.8 mph 9.3 mph 65% 0 in 0.00 W/m2 unknown
22:44 75.2 °F 64.4 °F 29.9 in ENE 9.3 mph 13 mph 66% 0 in 0.00 W/m2 unknown
22:49 75.2 °F 62.6 °F 29.9 in ENE 9.3 mph 13 mph 66% 0 in 0.00 W/m2 unknown
22:54 75.2 °F 62.6 °F 30 in ENE 9.3 mph 13.7 mph 66% 0 in 0.00 W/m2 unknown
22:59 75.2 °F 62.6 °F 30 in ENE 8.7 mph 14.3 mph 66% 0 in 0.00 W/m2 unknown
23:04 75.2 °F 62.6 °F 30 in ENE 8.7 mph 13 mph 66% 0 in 0.00 W/m2 unknown
23:09 75.2 °F 62.6 °F 30 in ENE 8.7 mph 11.8 mph 66% 0 in 0.00 W/m2 unknown
23:14 75.2 °F 62.6 °F 30 in ENE 8.7 mph 11.8 mph 66% 0 in 0.00 W/m2 unknown
23:19 75.2 °F 62.6 °F 30 in ENE 6.8 mph 11.8 mph 67% 0 in 0.00 W/m2 unknown
23:24 75.2 °F 62.6 °F 30 in ENE 7.5 mph 10.6 mph 68% 0 in 0.00 W/m2 unknown
23:29 73.4 °F 62.6 °F 30 in ENE 6.8 mph 9.9 mph 68% 0 in 0.00 W/m2 unknown
23:34 73.4 °F 62.6 °F 30 in ENE 6.2 mph 10.6 mph 69% 0 in 0.00 W/m2 unknown
23:39 73.4 °F 62.6 °F 30 in ENE 8.1 mph 11.2 mph 69% 0 in 0.00 W/m2 unknown
23:44 73.4 °F 62.6 °F 30 in ENE 9.3 mph 11.8 mph 69% 0 in 0.00 W/m2 unknown
23:49 73.4 °F 62.6 °F 30 in ENE 6.8 mph 11.8 mph 68% 0 in 0.00 W/m2 unknown
23:54 73.4 °F 62.6 °F 30 in ENE 7.5 mph 10.6 mph 68% 0 in 0.00 W/m2 unknown
23:59 73.4 °F 62.6 °F 30 in ENE 8.1 mph 11.2 mph 68% 0 in 0.00 W/m2 unknown
Stazione Meteorologica MeteoMincio Rivalta s/M (MN)
Con i complimenti di Weather Underground - 2 mb



GLOSSARIO METEOROLOGICO
Pioggia
Precipitazione di gocce d'acqua di vario diametro, tra 0,5 e 7 mm. Le gocce di pioggia traggono origine dalle gocce di nube: quando quest'ultime diventano abbastanza grosse da poter cadere prendono il nome di gocce di pioggia. Una goccia di pioggia contiene circa centomila goccioline di nube e si forma per coalescenza fra gocce di nube piccole e più grosse. La pioggia minuta e persistente cade dagli altostrati che partono da quote molto basse. La pioggia intensa è prodotta dai nembostrati. Tanto più intensa è la pioggia, tanto è maggiore è lo sviluppo verticale della nube alla cui sommità sono presenti cristalli di ghiaccio. L'unità di misura adottata è il millimetro, che equivale ad un litro d'acqua per metro quadrato di superficie.
Share

Non seguire questo link o sarai bannato dal sito!